星链-34951 (STARLINK-34951)

导读 | 豆包AI

STARLINK-34951是美国SpaceX星链星座的卫星,于2025年8月22日发射,归属美国。星链是SpaceX打造的低轨卫星互联网星座,旨在为全球提供高速卫星互联网接入服务,该卫星加入后将进一步扩充星链星座规模,提升全球网络覆盖能力与服务容量。

Basic Information
目录编号:
65293
目录名称:
STARLINK-34951
国际标识:
2025-184W
轨道中心:
EARTH
卫星名称:
星链-34951
卫星全名:
星链-34951 (STARLINK-34951)
卫星状态:
在轨 (已飞行250 天)
发射日期:
2025-08-22 UTC
国别 :
美国 (US)
星等 :
--
Orbit Information
数据来源 国际轨道数据 AOE轨道数据
星历时间 2026-04-29T11:45:16+0800
7小时前
查看轨道信息
2026-04-23T00:00:00+0800
6天前
查看轨道信息
半长轴 6927.7km 6927.659km
偏心率 0.0001658 0.0001626
轨道倾角 97.562° 97.594°
近地点辐角 135.860° 156.380°
升交点赤经 172.362° 166.001°
平近点角 224.276° 329.142°
近地点 548.414km 548.395km
远地点 550.712km 550.649km
周期 95.641分钟 95.640分钟
每日圈数 15.056334 15.056466
Detailed Information
固有亮度:
5
最大亮度:
2.5
卫星平台:
Starlink V1.0
覆盖范围:
全球
运营商:
太空探索技术公司
运营商所在国:
美国
制造商(研发单位):
太空探索技术公司
制造商所在国:
美国
使用方式:
暂无
Satellite Introduction
Starlink 计划是 SpaceX 推出的全球卫星互联网项目,通过发射低轨道卫星,为全球尤其是偏远地区提供高速、低延迟的互联网服务。自 2019 年起,Starlink 已部署数千颗卫星,旨在缩小全球数字鸿沟,推动互联网普及。该项目还为军事、航空等行业提供通信支持,带来广泛经济效益。
2D Orbit Map
3D Orbit Map
Orbit Altitude Analysis Chart
Orbit Inclination Analysis Chart
Orbit Comprehensive Analysis Chart
View Comprehensive Chart